This demonstration page uses our WeatherBlox Daily Observations layout. Learn more.

Left ArrowRight Arrow

34.16533, -84.80231

Hourly Observations for October 6, 2015

Temp ( °F °C ) Dew Point ( °F °C ) Humidity (%) Winds ( mph kmh ) Pressure ( in mb ) Visibility ( mi km ) Precip ( " mm )
12:53 am 00:53 Mostly Clear 65 18.3 63 17.2 93 93 Calm 29.99 1016 10 16 0.00 0.00
1:53 am 01:53 Partly Cloudy 64 17.8 63 17.2 96 96 Calm 29.99 1016 10 16 0.00 0.00
2:53 am 02:53 Clear 63 17.2 62 16.7 97 97 Calm 29.99 1016 10 16 0.00 0.00
3:53 am 03:53 Clear 63 17.2 61 16.1 93 93 E 3 6 29.99 1016 10 16 0.00 0.00
4:53 am 04:53 Clear 62 16.7 60 15.6 93 93 SE 3 6 29.99 1016 10 16 0.00 0.00
5:53 am 05:53 Clear 61 16.1 60 15.6 97 97 Calm 30.00 1016 10 16 0.00 0.00
6:53 am 06:53 Clear 60 15.6 59 15 96 96 Calm 30.02 1017 10 16 0.00 0.00
7:53 am 07:53 Sunny 59 15 58 14.4 96 96 Calm 30.04 1017 10 16 0.00 0.00
8:53 am 08:53 Cloudy 62 16.7 60 15.6 93 93 Calm 30.06 1018 10 16 0.00 0.00
9:53 am 09:53 Cloudy 63 17.2 57 13.9 81 81 VRB 6 9 30.07 1018 10 16 0.00 0.00
10:53 am 10:53 Cloudy 65 18.3 55 12.8 70 70 SE 7 11 30.09 1019 10 16 0.00 0.00
11:53 am 11:53 Cloudy 67 19.4 55 12.8 66 66 Calm 30.09 1019 10 16 0.00 0.00
12:53 pm 12:53 Cloudy 68 20 55 12.8 63 63 undefined N/A 30.08 1019 10 16 0.00 0.00
1:09 pm 13:09 Cloudy 68 20 54 12.2 61 61 ENE 5 7 30.09 1019 10 16 0.00 0.00
1:53 pm 13:53 Mostly Cloudy 70 21.1 56 13.3 61 61 VRB 3 6 30.05 1018 10 16 0.00 0.00
2:03 pm 14:03 Partly Cloudy 71 21.7 57 13.9 61 61 Calm 30.06 1018 10 16 0.00 0.00
2:53 pm 14:53 Sunny 73 22.8 58 14.4 59 59 VRB 5 7 30.02 1017 10 16 0.00 0.00
3:53 pm 15:53 Sunny 75 23.9 60 15.6 60 60 VRB 3 6 29.99 1016 10 16 0.00 0.00
4:53 pm 16:53 Sunny 77 25 60 15.6 56 56 Calm 29.98 1015 10 16 0.00 0.00
5:53 pm 17:53 Sunny 77 25 62 16.7 60 60 Calm 29.98 1015 10 16 0.00 0.00
6:53 pm 18:53 Sunny 72 22.2 64 17.8 76 76 Calm 29.98 1015 10 16 0.00 0.00
7:53 pm 19:53 Clear 64 17.8 64 17.8 100 100 Calm 29.99 1016 10 16 0.00 0.00
8:53 pm 20:53 Clear 63 17.2 63 17.2 100 100 Calm 29.99 1016 10 16 0.00 0.00
9:53 pm 21:53 Clear 62 16.7 61 16.1 96 96 Calm 30.00 1016 9 14 0.00 0.00
10:53 pm 22:53 Clear 61 16.1 60 15.6 97 97 Calm 30.01 1016 9 14 0.00 0.00
11:53 pm 23:53 Clear 60 15.6 60 15.6 100 100 Calm 30.01 1016 7 11 0.00 0.00

Powered by AerisWeather